Location: Unnamed
(47.6264°N, 122.3366°W)
Time: 05:34:57
(UTC-07:00)

X-37B - Pass Details

Date: 28 June 2021
Orbit: 383 x 392 km, 45.0° (Epoch: 01 July)

Event Time Altitude Azimuth Distance (km) Brightness Sun altitude
Rises 22:42:24 0° 267° (W) 2,258 4.9 -11.5°
Reaches altitude 10° 22:44:30 10° 262° (W) 1,403 3.8 -11.7°
Maximum altitude 22:47:34 51° 185° (S) 488 0.7 -12.0°
Enters shadow 22:49:40 18° 113° (ESE) 1,023 2.2 -12.2°
